Regional Weather Roundup
Issued by NWS

Home | Current Version | Previous Version | Graphics & Text | Print | Product List | Glossary On
Versions: 1 2 3 4 5 6 7 8 9 10 11 12 13 14 15 16 17 18 19 20 21 22 23 24 25 26 27 28 29 30 31 32 33 34 35 36 37 38 39 40 41 42 43 44 45 46 47 48 49 50
858
ASUS45 KPSR 180110
RWRAZ

ARIZONA HOURLY REGIONAL WEATHER ROUNDUP
NATIONAL WEATHER SERVICE PHOENIX AZ
600 PM MST SUN DEC 17 2017

NOTE: FAIR INDICATES FEW OR NO CLOUDS BELOW 12,000 FEET WITH NO
SIGNIFICANT WEATHER AND/OR OBSTRUCTIONS TO VISIBILITY.

AZZ001>003-036-180200-
NORTHWEST ARIZONA

CITY           SKY/WX    TMP DP  RH WIND       PRES   REMARKS
BULLHEAD CITY  CLEAR     61  21  21 N28       29.98S
KINGMAN        PTCLDY    45  19  35 NE10      30.02R
$$

AZZ004>008-015-016-018-180200-
NORTH CENTRAL ARIZONA

CITY           SKY/WX    TMP DP  RH WIND       PRES   REMARKS
GRAND CANYON   PTCLDY    33   9  36 NE3       30.05R
WILLIAMS       PTCLDY    37  16  41 SE6       29.99R WCI  33
PRESCOTT       CLOUDY    46  25  43 S7        29.99R
FLAGSTAFF      MOCLDY    35  13  40 E3        30.03R
PAYSON         CLOUDY    41  36  81 CALM      30.02R
PAGE           PTCLDY    40  16  37 CALM      30.05R
$$

AZZ009>014-017-180200-
NORTHEAST ARIZONA

CITY           SKY/WX    TMP DP  RH WIND       PRES   REMARKS
WINSLOW        CLOUDY    45  11  25 NW7       30.00R
SAINT JOHNS    MOCLDY    46  26  45 S7        29.98R
WINDOW ROCK    MOCLDY    40   6  24 NE5       30.02R
SHOW LOW       MOCLDY    36  34  93 W6        30.03R WCI  31
$$

AZZ540-542>544-546-548-180200-
GREATER PHOENIX AREA

CITY           SKY/WX    TMP DP  RH WIND       PRES   REMARKS
PHOENIX        MOCLDY    59  46  62 NE6       29.93R
BUCKEYE        PTCLDY    57  57 100 N3        29.95R
GLENDALE       MOCLDY    59  45  58 CALM      29.96R
LUKE AFB       MOCLDY    59  42  53 CALM      29.93R
DEER VALLEY    CLOUDY    58  41  53 NE6       29.94R
SCOTTSDALE     MOCLDY    59  42  53 E3        29.96R
MESA-FALCON    MOCLDY    57  45  62 N9        29.94R
MESA-GATEWAY   PTCLDY    55  46  71 NE5       29.95R
CHANDLER       MOCLDY    57  46  67 CALM      29.94R
$$

AZZ539-553-180200-
SOUTHWEST MARICOPA COUNTY AND PINAL COUNTY

CITY           SKY/WX    TMP DP  RH WIND       PRES   REMARKS
CASA GRANDE    NOT AVBL
$$

AZZ503-504-507>509-180200-
SOUTHEAST ARIZONA

CITY           SKY/WX    TMP DP  RH WIND       PRES   REMARKS
TUCSON         CLOUDY    49  45  86 SW9       29.97R
DAVIS-MONTHAN  LGT RAIN  47  40  76 S5        29.96R
RYAN FIELD     CLOUDY    50  45  81 SE10      29.96R
NOGALES        CLOUDY    44  41  89 MISG      29.95R
SIERRA VISTA   LGT RAIN  43  41  93 CALM      29.99R
DOUGLAS        CLOUDY    42  38  85 E7        30.00R
SAFFORD        CLOUDY    49  40  71 E10       29.99R
$$

AZZ532-180200-
SOUTHWEST ARIZONA

CITY           SKY/WX    TMP DP  RH WIND       PRES   REMARKS
YUMA           CLEAR     65  25  22 N12       29.93R
$$

CAZ041-043-047-048-061-525>527-560>570-180200-
SOUTHERN CALIFORNIA

CITY           SKY/WX    TMP DP  RH WIND       PRES   REMARKS
DOWNTOWN L.A.  PTCLDY    67  23  19 CALM      29.94R
L.A. AIRPORT   PTCLDY    71  22  15 N5        29.95R
SAN DIEGO      CLEAR     65  39  38 NW6       29.94R
BURBANK        PTCLDY    66  22  18 N7        29.95R
ONTARIO        PTCLDY    64  17  16 NE12G18   29.96R
RIVERSIDE      PTCLDY    62  19  19 NE13G29   29.98R
PALM SPRINGS   PTCLDY    65  18  16 N5        30.02R
EL CENTRO NAS  CLEAR     59  24  26 NW7       29.98R
IMPERIAL       CLEAR     61  35  37 NW7       29.95R
BLYTHE         CLEAR     62  20  19 N9        29.96R
NEEDLES        CLEAR     61  19  19 N16       30.00R
$$

NVZ020-UTZ003-180200-
SOUTHERN NEVADA-UTAH

CITY           SKY/WX    TMP DP  RH WIND       PRES   REMARKS
LAS VEGAS      PTCLDY    54  17  23 N15       30.08R
SALT LAKE CITY PTCLDY    31  24  75 W6        30.23R WCI  25
$$

NMZ009-TXZ055-180200-
NEW MEXICO-WEST TEXAS

CITY           SKY/WX    TMP DP  RH WIND       PRES   REMARKS
ALBUQUERQUE    PTCLDY    46  24  42 S14       30.03R
EL PASO        LGT RAIN  48  42  80 N5        30.05R
$$


........................KEY........................
SKY/WX - SKY CONDITION/WEATHER
TMP    - TEMPERATURE IN FAHRENHEIT
DP     - DEW POINT IN FAHRENHEIT
RH     - RELATIVE HUMIDITY IN PERCENT
WIND   - DIRECTION AND SPEED IN MILES PER HOUR (MPH)
VRB    - VARIABLE WIND DIRECTION
PRES   - MEAN SEA LEVEL PRESSURE IN INCHES OF MERCURY
         F - FALLING PRESSURE   R - RISING PRESSURE
         S - STEADY PRESSURE
VSB    - VISIBILITY IN MILES
HX     - HEAT INDEX IN FAHRENHEIT
WCI    - WIND CHILL INDEX IN FAHRENHEIT
TC     - TEMPERATURE IN CELSIUS WHICH IS ALSO KNOWN AS
         TEMPERATURE IN CENTIGRADE
AFB    - AIR FORCE BASE
         LUKE AFB IS LUKE AIR FORCE BASE
         DAVIS-MONTHAN IS DAVIS-MONTHAN AIR FORCE BASE
NAS    - NAVAL AIR STATION
         EL CENTRO NAS IS EL CENTRO NAVAL AIR STATION
N/A    - NOT AVAILABLE





USA.gov is the U.S. government's official web portal to all federal, state and local government web resources and services.